Tracking 30995 objects as of 7-Jul-2025
HD Live streaming from Space Station
objects crossing your sky now

ARIANE 44L DEB

Track ARIANE 44L DEB now!


NORAD ID: 28575
Int'l Code: 1991-075M
Perigee: 824.3 km
Apogee: 28,682.5 km
Inclination: 5.8 °
Period: 509.3 minutes
Semi major axis: 21124 km
RCS: 1.3642 m2 (large)
Launch date: October 29, 1991
Source: France (FR)
Launch site: FRENCH GUIANA (FRGUI)

Note: This is SATELLITE DEBRIS
Your satellite tracking list
Your tracking list is empty




NASA's NSSDC Master Catalog

Two Line Element Set (TLE):
1 28575U 91075M   25187.68000456  .00000066  00000-0  29566-2 0  9993
2 28575   5.7679 175.1565 6593862  69.5113  71.0157  2.82765394240684
Source of the keplerian elements: AFSPC